Weather in Chkalovskoye

Russia / Primorsky Krai     44°49′52″N   133°02′41″E
temp.,
°C
wind,
m/s
gust,
m/s
humid.,
%
clouds,
%
prec.,
mm/h
press.,
hPa
HPBL,
m
15 april, thu
thu1501:00+2ssw225199 0.0 101228
04:000ssw24735 0.0 101384
07:000ssw36600 0.0 1015127
10:00+6sw34286 0.0 1015820
13:00+10ssw47245 0.0 10141582
16:00+14sw692399 0.0 10121756
19:00+10s61333100 0.0 1012719
22:00+9s51333100 0.0 1014611
16 april, fri
fri1601:00+7sse2243100 0.0 101447
04:00+5se2455100 0.0 101467
07:00+3se36655 0.0 1013107
10:00+11sse81451100 0.0 10121458
13:00+12s81640100 0.0 10111833
16:00+14sse61233100 0.0 10082410
19:00+10sse41159100 0.3 10071526
22:00+8sse4879100 1.0 1006408
17 april, sat
sat1701:00+8ssw61280100 3.4 10051502
04:00+7s41080100 4.5 1006388
07:00+7ssw5137435 0.0 1008523
10:00+11sw594845 0.0 10101281
13:00+13wsw483789 0.0 10092333
16:00+15w46316 0.0 10082375
19:00+13nnw224087 0.0 100754
22:00+9ene2352100 0.0 100938
18 april, sun
sun1801:00+7nne397248 0.0 1008265
04:00+6n4118686 0.0 1007411
07:00+5n412876 0.0 1007537
10:00+8nnw69655 0.0 1008809
13:00+12nnw894765 0.0 10061478
16:00+14nnw8114099 0.0 10051995
19:00+13nnw7124397 0.0 10051385
22:00+8nw3115888 0.0 1007249
19 april, mon
mon1901:00+7wnw246637 0.0 100759
04:00+5wsw22735 0.0 100821
07:00+4sw22780 0.0 100950
10:00+11nw35520 0.0 1010594
13:00+15nw67380 0.0 10091688
16:00+17nw57335 0.0 10081906
19:00+16wnw24405 0.0 1009107
22:00+11wsw11500 0.0 101010